• In Austria
  • List of Countries
  • For 7 days
  • Water Temperature
  • Satellite Maps
  • Weather Map
  • News
  • Weather Widgets
  • user-avatar
    Login

    Hourly Weather Hobart

    Today, 21 October, Sunday

    Time Temperature Precipitation Wind Pressure Humidity
    00:00 +7°C° 0 mm 1 mps 748 mmHg 96%
    01:00 +6°C° 0 mm 1 mps 748 mmHg 96%
    02:00 +6°C° 0 mm 1 mps 748 mmHg 96%
    03:00 +6°C° 0 mm 1 mps 748 mmHg 95%
    04:00 +6°C° 0 mm 1 mps 748 mmHg 97%
    05:00 +7°C° 0 mm 1 mps 748 mmHg 90%
    06:00 +9°C° 0 mm 1 mps 748 mmHg 83%
    07:00 +10°C° 0 mm 1 mps 748 mmHg 76%
    08:00 +13°C° 0 mm 1 mps 748 mmHg 65%
    09:00 +16°C° 0 mm 1 mps 748 mmHg 55%
    10:00 +19°C° 0 mm 1 mps 748 mmHg 44%
    11:00 +19°C° 0 mm 2 mps 748 mmHg 42%
    12:00 +21°C° 0 mm 2 mps 748 mmHg 40%
    13:00 +23°C° 0 mm 2 mps 747 mmHg 39%
    14:00 +21°C° 0 mm 3 mps 747 mmHg 42%
    15:00 +20°C° 0 mm 3 mps 747 mmHg 46%
    16:00 +19°C° 0 mm 3 mps 747 mmHg 49%
    17:00 +17°C° 0 mm 2 mps 747 mmHg 60%
    18:00 +14°C° 0 mm 2 mps 747 mmHg 72%
    19:00 +12°C° 0 mm 2 mps 747 mmHg 83%
    20:00 +10°C° 0 mm 2 mps 747 mmHg 87%
    21:00 +9°C° 0 mm 2 mps 747 mmHg 91%
    22:00 +9°C° 0 mm 2 mps 748 mmHg 95%
    23:00 +8°C° 0 mm 2 mps 747 mmHg 95%

    Tomorrow, 22 October, Monday

    Time Temperature Precipitation Wind Pressure Humidity
    00:00 +8°C° 0 mm 2 mps 747 mmHg 96%
    01:00 +8°C° 0 mm 2 mps 747 mmHg 97%
    02:00 +8°C° 0 mm 2 mps 746 mmHg 97%
    03:00 +7°C° 0 mm 2 mps 746 mmHg 97%
    04:00 +7°C° 0 mm 2 mps 745 mmHg 97%
    05:00 +9°C° 0 mm 2 mps 745 mmHg 91%
    06:00 +10°C° 0 mm 2 mps 745 mmHg 85%
    07:00 +12°C° 0 mm 2 mps 745 mmHg 79%
    08:00 +14°C° 0 mm 3 mps 745 mmHg 67%
    09:00 +18°C° 0 mm 3 mps 744 mmHg 54%
    10:00 +20°C° 0 mm 3 mps 744 mmHg 42%
    11:00 +22°C° 0 mm 3 mps 743 mmHg 38%
    12:00 +23°C° 0 mm 4 mps 743 mmHg 34%
    13:00 +25°C° 0 mm 4 mps 742 mmHg 31%
    14:00 +25°C° 0 mm 4 mps 742 mmHg 34%
    15:00 +23°C° 0 mm 4 mps 742 mmHg 36%
    16:00 +22°C° 0 mm 4 mps 741 mmHg 39%
    17:00 +20°C° 0 mm 4 mps 741 mmHg 46%
    18:00 +18°C° 0 mm 4 mps 741 mmHg 53%
    19:00 +16°C° 0 mm 3 mps 741 mmHg 60%
    20:00 +14°C° 0 mm 3 mps 742 mmHg 64%
    21:00 +13°C° 0 mm 3 mps 742 mmHg 67%
    22:00 +12°C° 0 mm 4 mps 742 mmHg 71%
    23:00 +12°C° 0 mm 3 mps 742 mmHg 74%

    Day after tomorrow, 23 October, Tuesday

    Time Temperature Precipitation Wind Pressure Humidity
    00:00 +12°C° 0 mm 3 mps 742 mmHg 77%
    01:00 +11°C° 0 mm 3 mps 741 mmHg 80%
    02:00 +12°C° 0.4 mm 2 mps 741 mmHg 85%
    03:00 +12°C° 0.4 mm 2 mps 741 mmHg 90%
    04:00 +13°C° 0.4 mm 2 mps 741 mmHg 94%
    05:00 +13°C° 0.5 mm 2 mps 741 mmHg 94%
    06:00 +13°C° 0.5 mm 2 mps 742 mmHg 94%
    07:00 +13°C° 0.5 mm 1 mps 742 mmHg 94%
    08:00 +14°C° 0.1 mm 2 mps 742 mmHg 79%
    09:00 +15°C° 0.1 mm 2 mps 742 mmHg 63%
    10:00 +16°C° 0.1 mm 3 mps 742 mmHg 48%
    11:00 +15°C° 0 mm 4 mps 742 mmHg 48%
    12:00 +17°C° 0 mm 4 mps 741 mmHg 47%
    13:00 +16°C° 0 mm 5 mps 741 mmHg 47%
    14:00 +14°C° 0.1 mm 5 mps 742 mmHg 50%
    15:00 +13°C° 0.1 mm 6 mps 742 mmHg 52%
    16:00 +11°C° 0.1 mm 6 mps 742 mmHg 55%
    17:00 +9°C° 0 mm 6 mps 743 mmHg 58%
    18:00 +8°C° 0 mm 6 mps 743 mmHg 61%
    19:00 +7°C° 0 mm 6 mps 744 mmHg 64%
    20:00 +7°C° 0 mm 6 mps 745 mmHg 65%
    21:00 +6°C° 0 mm 7 mps 745 mmHg 67%
    22:00 +6°C° 0 mm 7 mps 746 mmHg 69%
    23:00 +6°C° 0 mm 7 mps 746 mmHg 70%

    24 October, Wednesday

    Time Temperature Precipitation Wind Pressure Humidity
    00:00 +6°C° 0 mm 8 mps 746 mmHg 71%
    01:00 +6°C° 0 mm 8 mps 747 mmHg 73%
    02:00 +6°C° 0 mm 7 mps 747 mmHg 74%
    03:00 +5°C° 0 mm 7 mps 748 mmHg 76%
    04:00 +5°C° 0 mm 7 mps 748 mmHg 78%
    05:00 +5°C° 0 mm 6 mps 749 mmHg 75%
    06:00 +7°C° 0 mm 6 mps 750 mmHg 73%
    07:00 +7°C° 0 mm 6 mps 750 mmHg 71%
    08:00 +8°C° 0.1 mm 6 mps 751 mmHg 66%
    09:00 +9°C° 0.1 mm 6 mps 751 mmHg 61%
    10:00 +10°C° 0.1 mm 5 mps 752 mmHg 56%
    11:00 +10°C° 0 mm 5 mps 752 mmHg 52%
    12:00 +12°C° 0 mm 5 mps 752 mmHg 49%
    13:00 +12°C° 0 mm 4 mps 752 mmHg 45%
    14:00 +12°C° 0 mm 4 mps 753 mmHg 45%
    15:00 +12°C° 0 mm 4 mps 753 mmHg 46%
    16:00 +12°C° 0 mm 3 mps 753 mmHg 46%
    17:00 +11°C° 0 mm 3 mps 753 mmHg 53%
    18:00 +9°C° 0 mm 2 mps 754 mmHg 60%
    19:00 +7°C° 0 mm 2 mps 754 mmHg 67%
    20:00 +7°C° 0 mm 2 mps 754 mmHg 72%
    21:00 +6°C° 0 mm 2 mps 754 mmHg 77%
    22:00 +6°C° 0 mm 2 mps 755 mmHg 82%
    23:00 +5°C° 0 mm 2 mps 754 mmHg 86%

    25 October, Thursday

    Time Temperature Precipitation Wind Pressure Humidity
    00:00 +4°C° 0 mm 2 mps 754 mmHg 90%
    01:00 +4°C° 0 mm 2 mps 754 mmHg 93%
    02:00 +4°C° 0 mm 2 mps 753 mmHg 93%
    03:00 +4°C° 0 mm 2 mps 753 mmHg 92%
    04:00 +5°C° 0 mm 1 mps 753 mmHg 91%
    05:00 +6°C° 0 mm 1 mps 752 mmHg 86%
    06:00 +7°C° 0 mm 1 mps 752 mmHg 81%
    07:00 +9°C° 0 mm 1 mps 752 mmHg 75%
    08:00 +10°C° 0 mm 2 mps 752 mmHg 65%
    09:00 +12°C° 0 mm 2 mps 752 mmHg 56%
    10:00 +14°C° 0 mm 2 mps 751 mmHg 46%
    11:00 +15°C° 0 mm 2 mps 751 mmHg 44%
    12:00 +16°C° 0 mm 2 mps 751 mmHg 43%
    13:00 +16°C° 0 mm 3 mps 750 mmHg 41%
    14:00 +16°C° 0 mm 3 mps 750 mmHg 44%
    15:00 +14°C° 0 mm 4 mps 749 mmHg 48%
    16:00 +14°C° 0 mm 4 mps 749 mmHg 51%
    17:00 +12°C° 0.2 mm 4 mps 749 mmHg 60%
    18:00 +11°C° 0.2 mm 3 mps 749 mmHg 70%
    19:00 +9°C° 0.2 mm 3 mps 749 mmHg 80%
    20:00 +9°C° 0.2 mm 3 mps 749 mmHg 83%
    21:00 +8°C° 0.2 mm 4 mps 749 mmHg 86%
    22:00 +8°C° 0.2 mm 4 mps 749 mmHg 89%
    23:00 +7°C° 0.1 mm 4 mps 749 mmHg 91%

    26 October, Friday

    Time Temperature Precipitation Wind Pressure Humidity
    00:00 +7°C° 0.1 mm 4 mps 749 mmHg 93%
    01:00 +7°C° 0.1 mm 4 mps 749 mmHg 95%
    02:00 +6°C° 0 mm 4 mps 749 mmHg 95%
    03:00 +5°C° 0 mm 4 mps 749 mmHg 96%
    04:00 +4°C° 0 mm 3 mps 750 mmHg 96%
    05:00 +5°C° 0 mm 3 mps 750 mmHg 93%
    06:00 +7°C° 0 mm 3 mps 751 mmHg 90%
    07:00 +8°C° 0 mm 3 mps 751 mmHg 86%
    08:00 +10°C° 0 mm 3 mps 751 mmHg 72%
    09:00 +13°C° 0 mm 2 mps 751 mmHg 57%
    10:00 +15°C° 0 mm 2 mps 751 mmHg 43%
    11:00 +17°C° 0 mm 2 mps 751 mmHg 38%
    12:00 +19°C° 0 mm 2 mps 751 mmHg 33%
    13:00 +21°C° 0 mm 2 mps 750 mmHg 28%
    14:00 +21°C° 0 mm 2 mps 750 mmHg 30%
    15:00 +20°C° 0 mm 3 mps 750 mmHg 33%
    16:00 +20°C° 0 mm 3 mps 750 mmHg 36%
    17:00 +17°C° 0 mm 3 mps 750 mmHg 49%
    18:00 +14°C° 0 mm 2 mps 750 mmHg 62%
    19:00 +10°C° 0 mm 2 mps 750 mmHg 76%
    20:00 +8°C° 0 mm 2 mps 750 mmHg 82%
    21:00 +7°C° 0 mm 2 mps 750 mmHg 89%
    22:00 +6°C° 0 mm 2 mps 750 mmHg 95%
    23:00 +6°C° 0 mm 2 mps 750 mmHg 96%
    Show more